Weather History for Rock Springs, WY

Change the Weather History Date:

Tuesday, February 25, 2014

  Actual Average Record
Temperature  
Mean Temperature 29 °F 27 °F  
Max Temperature 48 °F 36 °F 55 °F (1986)
Min Temperature 10 °F 18 °F -5 °F (1960)
Degree Days  
Heating Degree Days 36 38  
Month to date heating degree days 965 1034  
Since 1 July heating degree days 5358 5738  
Cooling Degree Days 0 0  
Month to date cooling degree days 0 0  
Year to date cooling degree days 0 0  
Moisture  
Dew Point 16 °F    
Average Humidity 58    
Maximum Humidity 76    
Minimum Humidity 40    
Precipitation  
Precipitation T in 0.02 in 0.19 in (1985)
Month to date precipitation 0.08 0.43  
Year to date precipitation 0.15 0.88  
Sea Level Pressure  
Sea Level Pressure 30.04 in    
Wind  
Wind Speed 19 mph (NNE)    
Max Wind Speed 38 mph    
Max Gust Speed 44 mph    
Visibility 10 miles    
Events      
T = Trace of Precipitation, MM = Missing Value Source: NWS Daily Summary

Daily Weather History Graph

Daily Weather History Graph

Search for Another Location

Airport:

Trip Planner

Search our weather history database for the weather conditions in past years. The results will help you decide how hot, cold, wet, or windy it might be!

Date:

Astronomy

Feb. 25, 2014 Rise Set
Actual Time 6:56 AM MST 6:02 PM MST
Civil Twilight 6:29 AM MST 6:30 PM MST
Nautical Twilight 5:56 AM MST 7:02 PM MST
Astronomical Twilight 5:24 AM MST 7:34 PM MST
Moon 3:56 AM MST (2/25) 2:09 PM MST (2/25)
Length of Visible Light 12h 01m
Length of Day
11h 05m
Waning Crescent, 17% of the Moon is Illuminated
Feb 25
Waning Crescent
Mar 1
New
Mar 8
First Quarter
Mar 16
Full
Mar 23
Last Quarter

Hourly Weather History & Observations

Time (MST) Temp. Windchill Dew Point Humidity Pressure Visibility Wind Dir Wind Speed Gust Speed Precip Events Conditions
12:54 AM 34.0 °F 26.6 °F 21.0 °F 59% 29.95 in 10.0 mi SW 9.2 mph - N/A   Scattered Clouds
1:54 AM 34.0 °F 29.8 °F 19.9 °F 56% 29.95 in 10.0 mi Variable 4.6 mph - N/A   Partly Cloudy
2:54 AM 35.1 °F 23.3 °F 21.0 °F 57% 29.91 in 10.0 mi WSW 23.0 mph - N/A   Clear
3:54 AM 35.1 °F 24.5 °F 21.9 °F 59% 29.90 in 10.0 mi West 18.4 mph - N/A   Clear
4:54 AM 36.0 °F 24.4 °F 24.1 °F 62% 29.91 in 10.0 mi West 23.0 mph 29.9 mph N/A   Clear
5:54 AM 36.0 °F 24.4 °F 24.1 °F 62% 29.92 in 10.0 mi West 23.0 mph - N/A   Clear
6:54 AM 35.1 °F 24.8 °F 23.0 °F 61% 29.93 in 10.0 mi WSW 17.3 mph 27.6 mph N/A   Clear
7:54 AM 39.0 °F 27.8 °F 21.9 °F 50% 29.93 in 10.0 mi West 26.5 mph 38.0 mph N/A   Clear
8:54 AM 39.9 °F 29.0 °F 21.9 °F 49% 29.92 in 10.0 mi WSW 26.5 mph 29.9 mph N/A   Clear
9:54 AM 44.1 °F 33.5 °F 21.9 °F 42% 29.90 in 10.0 mi West 33.4 mph 40.3 mph N/A   Clear
10:54 AM 46.9 °F - 25.0 °F 42% 29.91 in 10.0 mi West 33.4 mph 40.3 mph N/A   Clear
11:54 AM 44.1 °F 35.7 °F 26.1 °F 49% 29.94 in 10.0 mi West 20.7 mph - N/A   Overcast
12:54 PM 44.1 °F 36.5 °F 27.0 °F 51% 29.93 in 10.0 mi West 17.3 mph 24.2 mph N/A   Overcast
1:09 PM 30.0 °F 18.7 °F 17.1 °F 59% 29.97 in 10.0 mi ENE 16.1 mph 23.0 mph N/A   Overcast
1:19 PM 26.1 °F 12.7 °F 12.9 °F 58% 29.98 in 10.0 mi ENE 18.4 mph 25.3 mph N/A   Overcast
1:54 PM 23.0 °F 7.2 °F 10.9 °F 60% 30.06 in 10.0 mi ENE 23.0 mph - N/A   Overcast
2:54 PM 23.0 °F 6.6 °F 10.9 °F 60% 30.10 in 10.0 mi ENE 25.3 mph 32.2 mph N/A   Overcast
3:54 PM 19.9 °F 2.5 °F 10.9 °F 68% 30.15 in 10.0 mi ENE 25.3 mph - N/A   Overcast
4:54 PM 19.0 °F 1.0 °F 9.0 °F 65% 30.19 in 10.0 mi NE 26.5 mph 33.4 mph 0.00 in   Scattered Clouds
5:54 PM 17.1 °F 0.1 °F 8.1 °F 68% 30.22 in 10.0 mi ENE 20.7 mph - N/A   Overcast
6:02 PM 17.1 °F 0.6 °F 8.1 °F 68% 30.12 in 10.0 mi ENE 19.6 mph - N/A   Overcast
6:54 PM 16.0 °F 1.1 °F 7.0 °F 68% 30.24 in 10.0 mi ENE 15.0 mph - N/A   Overcast
7:54 PM 16.0 °F 2.3 °F 7.0 °F 68% 30.24 in 10.0 mi ENE 12.7 mph - N/A   Overcast
8:26 PM 15.1 °F -2.0 °F 6.1 °F 68% 30.15 in 10.0 mi East 19.6 mph - N/A   Mostly Cloudy
8:54 PM 15.1 °F -0.1 °F 6.1 °F 68% 30.25 in 10.0 mi ENE 15.0 mph - N/A   Scattered Clouds
9:54 PM 12.9 °F -0.2 °F 6.1 °F 74% 30.25 in 10.0 mi East 10.4 mph - N/A   Clear
11:54 PM 10.9 °F 0.2 °F 6.1 °F 81% 30.22 in 10.0 mi NE 6.9 mph - N/A   Clear